FW6908 Weather Reports


time (UTC)temp
C
wind
direction
speed
KPH
gust
KPH
rain 1hr
cm
rain 24hr
cm
rain mn
cm
humidity
%
barometer
mb
20260902204557 28 71 3.2 12.9 0.00 0.00 0.00 41 1015.2
20260902204056 28 96 8.0 12.9 0.00 0.00 0.00 41 1015.1
20260902203556 28 69 3.2 6.4 0.00 0.00 0.00 41 1015.2
20260902203056 28 33 1.6 4.8 0.00 0.00 0.00 41 1015.2
20260902202556 28 19 0.0 8.0 0.00 0.00 0.00 41 1015.2
20260902202056 28 18 3.2 8.0 0.00 0.00 0.00 41 1015.3
20260902201556 28 355 4.8 8.0 0.00 0.00 0.00 41 1015.3
20260902201055 28 355 4.8 8.0 0.00 0.00 0.00 41 1015.3
20260902200555 28 29 3.2 8.0 0.00 0.00 0.00 41 1015.3
20260902200055 28 17 3.2 6.4 0.00 0.00 0.00 40 1015.4
20260902195558 28 360 0.0 4.8 0.00 0.00 0.00 40 1015.4
20260902195055 28 360 3.2 6.4 0.00 0.00 0.00 40 1015.3
20260902194555 28 355 3.2 6.4 0.00 0.00 0.00 40 1015.4
20260902194054 28 355 0.0 4.8 0.00 0.00 0.00 40 1015.5
20260902193554 28 355 0.0 4.8 0.00 0.00 0.00 40 1015.5
20260902193055 28 355 1.6 4.8 0.00 0.00 0.00 40 1015.5
20260902192553 28 331 3.2 4.8 0.00 0.00 0.00 40 1015.5
20260902192056 28 321 1.6 4.8 0.00 0.00 0.00 39 1015.5
20260902191554 28 328 0.0 1.6 0.00 0.00 0.00 39 1015.4
20260902191053 28 331 0.0 4.8 0.00 0.00 0.00 39 1015.5
20260902190553 28 331 0.0 4.8 0.00 0.00 0.00 39 1015.4
20260902190053 28 323 1.6 4.8 0.00 0.00 0.00 39 1015.3
20260902185553 28 342 0.0 4.8 0.00 0.00 0.00 39 1015.4
20260902185057 28 340 0.0 4.8 0.00 0.00 0.00 39 1015.4
20260902184552 29 309 1.6 14.5 0.00 0.00 0.00 38 1015.3
20260902184052 29 55 1.6 19.3 0.00 0.00 0.00 38 1015.3
20260902183552 29 77 6.4 16.1 0.00 0.00 0.00 38 1015.3
20260902183052 29 88 4.8 12.9 0.00 0.00 0.00 38 1015.2
20260902182551 29 74 3.2 14.5 0.00 0.00 0.00 38 1015.1
20260902182051 29 88 6.4 12.9 0.00 0.00 0.00 38 1015.1
20260902181556 29 103 6.4 12.9 0.00 0.00 0.00 38 1015.1
20260902181050 29 90 6.4 17.7 0.00 0.00 0.00 37 1015.0
20260902180550 29 117 8.0 17.7 0.00 0.00 0.00 37 1015.1
20260902180056 29 145 8.0 14.5 0.00 0.00 0.00 37 1015.1
20260902175551 30 105 3.2 11.3 0.00 0.00 0.00 37 1015.0
20260902175050 30 111 3.2 14.5 0.00 0.00 0.00 37 1015.1
20260902174558 30 113 6.4 16.1 0.00 0.00 0.00 37 1015.0
20260902174049 30 100 4.8 16.1 0.00 0.00 0.00 37 1015.0
20260902173551 30 97 6.4 14.5 0.00 0.00 0.00 37 1015.0
20260902173050 30 116 6.4 14.5 0.00 0.00 0.00 36 1015.0
20260902172549 30 53 8.0 14.5 0.00 0.00 0.00 36 1015.0
20260902172051 30 95 6.4 11.3 0.00 0.00 0.00 36 1015.0
20260902171559 30 109 3.2 14.5 0.00 0.00 0.00 36 1015.0
20260902171053 30 65 6.4 14.5 0.00 0.00 0.00 36 1014.9
20260902170548 30 65 4.8 16.1 0.00 0.00 0.00 36 1014.9
20260902170048 31 66 6.4 16.1 0.00 0.00 0.00 35 1014.8
20260902165548 31 28 3.2 17.7 0.00 0.00 0.00 35 1014.8
20260902165048 31 84 8.0 17.7 0.00 0.00 0.00 35 1014.8
20260902164547 31 119 4.8 20.9 0.00 0.00 0.00 35 1014.9
20260902164046 31 30 11.3 24.1 0.00 0.00 0.00 35 1015.0
20260902163547 31 40 12.9 24.1 0.00 0.00 0.00 35 1015.0
20260902163047 31 30 8.0 20.9 0.00 0.00 0.00 35 1015.1
20260902162549 32 29 11.3 20.9 0.00 0.00 0.00 34 1015.1
20260902162047 32 21 6.4 20.9 0.00 0.00 0.00 34 1015.1
20260902161556 32 71 9.7 24.1 0.00 0.00 0.00 34 1015.1
20260902161045 32 49 12.9 24.1 0.00 0.00 0.00 34 1015.1
20260902160545 32 42 8.0 24.1 0.00 0.00 0.00 34 1015.2
20260902160049 32 66 16.1 27.4 0.00 0.00 0.00 33 1015.2
20260902155544 32 47 8.0 20.9 0.00 0.00 0.00 33 1015.1
20260902155045 32 84 8.0 20.9 0.00 0.00 0.00 33 1015.2
20260902154544 32 34 11.3 20.9 0.00 0.00 0.00 33 1015.1
20260902154042 33 63 6.4 20.9 0.00 0.00 0.00 33 1015.1
20260902153542 33 39 4.8 20.9 0.00 0.00 0.00 33 1015.1
20260902153041 32 83 11.3 22.5 0.00 0.00 0.00 33 1015.1
20260902152540 32 76 11.3 27.4 0.00 0.00 0.00 33 1015.1
20260902152039 32 67 16.1 27.4 0.00 0.00 0.00 33 1015.1
20260902151538 33 117 16.1 29.0 0.00 0.00 0.00 33 1015.1
20260902151036 33 36 17.7 29.0 0.00 0.00 0.00 32 1015.2
20260902150537 33 86 16.1 27.4 0.00 0.00 0.00 32 1015.1
20260902150037 33 50 11.3 27.4 0.00 0.00 0.00 32 1015.1
20260902145533 33 68 8.0 27.4 0.00 0.00 0.00 32 1015.1
20260902145032 33 86 17.7 32.2 0.00 0.00 0.00 32 1015.3
20260902144535 33 73 19.3 35.4 0.00 0.00 0.00 32 1015.2
20260902144031 33 47 17.7 35.4 0.00 0.00 0.00 31 1015.1
20260902143532 33 98 20.9 32.2 0.00 0.00 0.00 31 1015.0
20260902143031 33 57 19.3 29.0 0.00 0.00 0.00 31 1015.0
20260902142532 33 75 14.5 33.8 0.00 0.00 0.00 31 1015.0
20260902142030 33 68 22.5 35.4 0.00 0.00 0.00 31 1015.2
20260902141529 33 65 24.1 35.4 0.00 0.00 0.00 31 1015.3
20260902141029 33 103 16.1 33.8 0.00 0.00 0.00 31 1015.3
20260902140529 33 16 14.5 32.2 0.00 0.00 0.00 31 1015.4
20260902140034 33 94 17.7 43.5 0.00 0.00 0.00 31 1015.4
20260902135528 33 86 22.5 43.5 0.00 0.00 0.00 30 1015.4
20260902135028 33 46 14.5 38.6 0.00 0.00 0.00 30 1015.3
20260902134529 33 42 19.3 38.6 0.00 0.00 0.00 30 1015.4
20260902134029 33 99 22.5 37.0 0.00 0.00 0.00 30 1015.4
20260902133527 33 101 22.5 37.0 0.00 0.00 0.00 30 1015.4
20260902133032 33 86 24.1 40.2 0.00 0.00 0.00 30 1015.4
20260902132530 33 79 19.3 40.2 0.00 0.00 0.00 30 1015.4
20260902132026 33 142 24.1 43.5 0.00 0.00 0.00 29 1015.5
20260902131535 34 88 20.9 38.6 0.00 0.00 0.00 29 1015.5
20260902131026 34 69 22.5 40.2 0.00 0.00 0.00 29 1015.6
20260902130526 34 75 24.1 40.2 0.00 0.00 0.00 28 1015.6
20260902130025 34 52 16.1 40.2 0.00 0.00 0.00 29 1015.5
20260902125526 34 63 24.1 40.2 0.00 0.00 0.00 29 1015.6
20260902125025 34 97 22.5 40.2 0.00 0.00 0.00 29 1015.5
20260902124530 34 93 22.5 48.3 0.00 0.00 0.00 28 1015.6
20260902124023 34 79 29.0 48.3 0.00 0.00 0.00 28 1015.5
20260902123524 34 77 19.3 45.1 0.00 0.00 0.00 29 1015.7
20260902123023 33 57 22.5 46.7 0.00 0.00 0.00 29 1015.6
20260902122523 34 60 24.1 43.5 0.00 0.00 0.00 29 1015.7
20260902122023 34 89 27.4 43.5 0.00 0.00 0.00 28 1015.8
20260902121522 34 137 24.1 38.6 0.00 0.00 0.00 28 1015.9
20260902121021 34 121 16.1 37.0 0.00 0.00 0.00 28 1015.8
20260902120521 34 56 22.5 37.0 0.00 0.00 0.00 28 1016.0
20260902120025 34 59 19.3 41.8 0.00 0.00 0.00 28 1016.1
20260902115523 34 42 22.5 41.8 0.00 0.00 0.00 28 1016.0
20260902115020 34 85 16.1 40.2 0.00 0.00 0.00 28 1016.1
20260902114535 34 123 24.1 43.5 0.00 0.00 0.00 28 1016.1
20260902114018 34 79 25.7 43.5 0.00 0.00 0.00 28 1016.1
20260902113519 34 21 16.1 45.1 0.00 0.00 0.00 28 1016.2
20260902113019 33 72 25.7 49.9 0.00 0.00 0.00 28 1016.3
20260902112518 33 45 19.3 49.9 0.00 0.00 0.00 28 1016.2
20260902112019 33 73 27.4 51.5 0.00 0.00 0.00 28 1016.2
20260902111520 34 98 22.5 46.7 0.00 0.00 0.00 28 1016.3
20260902111018 34 32 20.9 46.7 0.00 0.00 0.00 28 1016.4
20260902110518 33 83 24.1 46.7 0.00 0.00 0.00 27 1016.3
20260902110025 33 93 29.0 46.7 0.00 0.00 0.00 27 1016.4
20260902105518 34 44 22.5 48.3 0.00 0.00 0.00 27 1016.5
20260902105018 33 77 19.3 48.3 0.00 0.00 0.00 27 1016.5
20260902104531 33 84 30.6 48.3 0.00 0.00 0.00 27 1016.4
20260902104017 34 102 24.1 45.1 0.00 0.00 0.00 26 1016.6
20260902103516 34 117 25.7 48.3 0.00 0.00 0.00 26 1016.6
20260902103022 34 88 33.8 48.3 0.00 0.00 0.00 26 1016.5
20260902102521 34 47 20.9 40.2 0.00 0.00 0.00 27 1016.6
20260902102016 33 63 16.1 46.7 0.00 0.00 0.00 27 1016.7
20260902101517 34 88 25.7 46.7 0.00 0.00 0.00 27 1016.6
20260902101014 34 110 11.3 40.2 0.00 0.00 0.00 27 1016.7
20260902100513 34 34 22.5 40.2 0.00 0.00 0.00 27 1016.7
20260902100012 34 45 19.3 37.0 0.00 0.00 0.00 28 1016.8
20260902095511 33 49 17.7 40.2 0.00 0.00 0.00 28 1016.8
20260902095011 33 25 22.5 40.2 0.00 0.00 0.00 29 1016.8
20260902094507 33 81 25.7 46.7 0.00 0.00 0.00 28 1016.8
20260902094006 33 107 25.7 49.9 0.00 0.00 0.00 28 1016.9
20260902093503 33 89 19.3 49.9 0.00 0.00 0.00 29 1016.8
20260902093002 33 97 19.3 53.1 0.00 0.00 0.00 29 1016.8
20260902092501 33 86 25.7 53.1 0.00 0.00 0.00 29 1016.8
20260902092103 33 52 22.5 43.5 0.00 0.00 0.00 30 1016.7
20260902091558 33 54 20.9 43.5 0.00 0.00 0.00 29 1016.7
20260902091058 33 47 25.7 51.5 0.00 0.00 0.00 29 1016.6
20260902090556 33 28 32.2 51.5 0.00 0.00 0.00 30 1016.5
20260902090100 33 86 22.5 45.1 0.00 0.00 0.00 30 1016.5
20260902085554 33 67 24.1 41.8 0.00 0.00 0.00 30 1016.4
20260902085050 33 57 27.4 43.5 0.00 0.00 0.00 32 1016.4
20260902084549 33 68 25.7 43.5 0.00 0.00 0.00 31 1016.5
20260902084048 33 55 19.3 37.0 0.00 0.00 0.00 32 1016.5
20260902083546 33 355 19.3 41.8 0.00 0.00 0.00 33 1016.5
20260902083046 32 69 20.9 38.6 0.00 0.00 0.00 32 1016.4
20260902082543 33 27 22.5 45.1 0.00 0.00 0.00 32 1016.4
20260902082042 33 14 17.7 45.1 0.00 0.00 0.00 33 1016.4
20260902081543 32 63 17.7 35.4 0.00 0.00 0.00 33 1016.4
20260902081040 32 47 22.5 40.2 0.00 0.00 0.00 33 1016.4
20260902080538 32 67 20.9 40.2 0.00 0.00 0.00 34 1016.5
20260902080037 32 83 20.9 40.2 0.00 0.00 0.00 34 1016.5
20260902075536 32 80 16.1 40.2 0.00 0.00 0.00 35 1016.6
20260902075035 32 67 19.3 38.6 0.00 0.00 0.00 34 1016.5
20260902074543 32 59 17.7 38.6 0.00 0.00 0.00 34 1016.5
20260902074032 32 52 19.3 40.2 0.00 0.00 0.00 34 1016.6
20260902073530 31 30 22.5 41.8 0.00 0.00 0.00 34 1016.6
20260902073028 31 159 17.7 41.8 0.00 0.00 0.00 35 1016.6
20260902072526 31 29 16.1 35.4 0.00 0.00 0.00 35 1016.6
20260902072026 31 40 16.1 32.2 0.00 0.00 0.00 36 1016.6
20260902071524 31 59 19.3 35.4 0.00 0.00 0.00 35 1016.6
20260902071022 31 44 16.1 25.7 0.00 0.00 0.00 36 1016.7
20260902070521 31 76 11.3 27.4 0.00 0.00 0.00 36 1016.5
20260902070020 31 71 12.9 27.4 0.00 0.00 0.00 36 1016.4
20260902065519 31 84 12.9 33.8 0.00 0.00 0.00 36 1016.5
20260902065017 31 79 20.9 33.8 0.00 0.00 0.00 36 1016.4
20260902064520 31 58 17.7 29.0 0.00 0.00 0.00 37 1016.5
20260902064013 31 68 14.5 30.6 0.00 0.00 0.00 36 1016.4
20260902063511 31 51 16.1 29.0 0.00 0.00 0.00 36 1016.4
20260902063017 31 71 14.5 24.1 0.00 0.00 0.00 36 1016.4
20260902062510 30 117 11.3 29.0 0.00 0.00 0.00 37 1016.4
20260902062008 30 88 12.9 29.0 0.00 0.00 0.00 37 1016.4
20260902061516 30 105 6.4 17.7 0.00 0.00 0.00 39 1016.4
20260902061006 30 329 4.8 24.1 0.00 0.00 0.00 39 1016.4
20260902060503 30 108 8.0 24.1 0.00 0.00 0.00 39 1016.4
20260902060009 30 116 6.4 19.3 0.00 0.00 0.00 39 1016.3
20260902055503 30 130 6.4 14.5 0.00 0.00 0.00 39 1016.4
20260902055100 29 80 3.2 16.1 0.00 0.00 0.00 40 1016.4
20260902054600 29 119 3.2 19.3 0.00 0.00 0.00 40 1016.4
20260902054057 29 148 3.2 20.9 0.00 0.00 0.00 39 1016.3
20260902053555 29 87 14.5 20.9 0.00 0.00 0.00 40 1016.4
20260902053103 29 123 8.0 16.1 0.00 0.00 0.00 41 1016.4
20260902052554 28 160 8.0 11.3 0.00 0.00 0.00 42 1016.3
20260902052050 28 153 6.4 12.9 0.00 0.00 0.00 44 1016.3
20260902051554 28 169 8.0 11.3 0.00 0.00 0.00 46 1016.3
20260902051048 27 141 6.4 9.7 0.00 0.00 0.00 47 1016.5
20260902050547 27 136 6.4 9.7 0.00 0.00 0.00 49 1016.4
20260902050048 27 207 3.2 6.4 0.00 0.00 0.00 50 1016.4
20260902045544 27 248 1.6 4.8 0.00 0.00 0.00 50 1016.3
20260902045043 27 212 0.0 4.8 0.00 0.00 0.00 50 1016.4
20260902044545 27 212 1.6 4.8 0.00 0.00 0.00 51 1016.3
20260902044040 26 218 0.0 4.8 0.00 0.00 0.00 51 1016.3
20260902043538 26 214 0.0 4.8 0.00 0.00 0.00 51 1016.2
20260902043037 26 211 1.6 4.8 0.00 0.00 0.00 51 1016.2
20260902042539 26 186 1.6 6.4 0.00 0.00 0.00 51 1016.2
20260902042035 26 196 1.6 8.0 0.00 0.00 0.00 51 1016.1
20260902041538 26 225 3.2 6.4 0.00 0.00 0.00 51 1016.1
20260902041033 26 223 1.6 4.8 0.00 0.00 0.00 50 1016.1
20260902040532 26 198 0.0 6.4 0.00 0.00 0.00 51 1016.2
20260902040032 26 196 0.0 6.4 0.00 0.00 0.00 51 1016.2
20260902035531 26 267 0.0 3.2 0.00 0.00 0.00 50 1016.1
20260902035031 26 262 0.0 0.0 0.00 0.00 0.00 50 1016.0
20260902034534 26 203 0.0 4.8 0.00 0.00 0.00 50 1016.0
20260902034030 26 214 1.6 6.4 0.00 0.00 0.00 50 1015.9
20260902033531 26 186 1.6 6.4 0.00 0.00 0.00 50 1015.8
20260902033030 26 261 3.2 6.4 0.00 0.00 0.00 50 1015.9
20260902032530 26 163 1.6 11.3 0.00 0.00 0.00 50 1015.7
20260902032029 27 99 3.2 12.9 0.00 0.00 0.00 49 1015.8
20260902031530 27 140 9.7 12.9 0.00 0.00 0.00 49 1015.6
20260902031030 27 155 8.0 12.9 0.00 0.00 0.00 49 1015.6
20260902030534 27 128 6.4 12.9 0.00 0.00 0.00 49 1015.7
20260902030029 27 134 8.0 16.1 0.00 0.00 0.00 49 1015.6
20260902025528 27 142 9.7 14.5 0.00 0.00 0.00 49 1015.6
20260902025028 26 128 9.7 14.5 0.00 0.00 0.00 49 1015.6
20260902024527 27 130 4.8 11.3 0.00 0.00 0.00 49 1015.6
20260902024030 27 130 6.4 11.3 0.00 0.00 0.00 49 1015.5
20260902023526 27 132 8.0 11.3 0.00 0.00 0.00 49 1015.5
20260902023028 27 128 3.2 8.0 0.00 0.00 0.00 49 1015.7
20260902022526 27 137 3.2 9.7 0.00 0.00 0.00 49 1015.6
20260902022026 27 123 3.2 11.3 0.00 0.00 0.00 49 1015.7
20260902021525 27 123 4.8 11.3 0.00 0.00 0.00 49 1015.7
20260902021029 27 132 1.6 9.7 0.00 0.00 0.00 49 1015.7
20260902020525 27 126 3.2 6.4 0.00 0.00 0.00 50 1015.7
20260902020025 27 122 1.6 9.7 0.00 0.00 0.00 50 1015.6
20260902015625 27 122 3.2 12.9 0.00 0.00 0.00 49 1015.7
20260902015024 27 111 4.8 12.9 0.00 0.00 0.00 49 1015.8
20260902014533 27 93 4.8 14.5 0.00 0.00 0.00 49 1015.8
20260902014023 27 137 4.8 14.5 0.00 0.00 0.00 49 1015.9
20260902013523 27 105 1.6 9.7 0.00 0.00 0.00 48 1015.9
20260902013023 27 84 0.0 6.4 0.00 0.00 0.00 48 1015.9
20260902012524 27 79 1.6 11.3 0.00 0.00 0.00 48 1016.0
20260902012022 27 142 4.8 11.3 0.00 0.00 0.00 48 1015.9
20260902011524 27 136 6.4 11.3 0.00 0.00 0.00 48 1015.8
20260902011022 27 157 3.2 8.0 0.00 0.00 0.00 48 1015.8
20260902010522 27 162 3.2 8.0 0.00 0.00 0.00 48 1015.7
20260902010031 27 209 1.6 4.8 0.00 0.00 0.00 50 1015.7
20260902005521 27 284 0.0 0.0 0.00 0.00 0.00 49 1015.8
20260902005021 27 304 0.0 0.0 0.00 0.00 0.00 51 1015.7
20260902004521 27 305 0.0 0.0 0.00 0.00 0.00 51 1015.7
20260902004020 26 325 0.0 0.0 0.00 0.00 0.00 53 1015.8
20260902003520 26 329 0.0 4.8 0.00 0.00 0.00 53 1015.7
20260902003019 26 331 1.6 4.8 0.00 0.00 0.00 53 1015.7
20260902002520 26 351 1.6 4.8 0.00 0.00 0.00 53 1015.7
20260902002019 26 5 0.0 1.6 0.00 0.00 0.00 53 1015.7
20260902001523 26 5 0.0 4.8 0.00 0.00 0.00 53 1015.7
20260902001017 27 9 1.6 6.4 0.00 0.00 0.00 52 1015.7
20260902000517 27 9 3.2 9.7 0.00 0.00 0.00 51 1015.7
20260902000021 27 113 1.6 11.3 0.00 0.00 0.00 49 1015.7
20260901235515 27 101 6.4 11.3 0.00 0.00 0.00 49 1015.7
20260901235016 27 101 4.8 11.3 0.00 0.00 0.00 49 1015.7
20260901234515 27 112 6.4 11.3 0.00 0.00 0.00 50 1015.7
20260901234015 27 108 4.8 12.9 0.00 0.00 0.00 50 1015.7
20260901233514 28 93 8.0 12.9 0.00 0.00 0.00 50 1015.7
20260901233014 28 64 6.4 12.9 0.00 0.00 0.00 50 1015.7
20260901232513 28 98 6.4 12.9 0.00 0.00 0.00 50 1015.8
20260901232013 28 103 8.0 14.5 0.00 0.00 0.00 50 1015.8
20260901231514 28 98 6.4 16.1 0.00 0.00 0.00 50 1015.8
20260901231012 28 107 9.7 16.1 0.00 0.00 0.00 50 1015.8
20260901230512 28 86 6.4 16.1 0.00 0.00 0.00 50 1015.9
20260901230013 28 90 9.7 16.1 0.00 0.00 0.00 50 1015.8
20260901225511 28 100 11.3 19.3 0.00 0.00 0.00 50 1015.9
20260901225011 28 95 11.3 22.5 0.00 0.00 0.00 50 1015.9
20260901224511 28 98 12.9 20.9 0.00 0.00 0.00 51 1015.9
20260901224011 28 82 9.7 20.9 0.00 0.00 0.00 51 1015.8
20260901223510 28 98 11.3 19.3 0.00 0.00 0.00 51 1015.9
20260901223010 28 61 9.7 17.7 0.00 0.00 0.00 52 1015.9
20260901222509 28 90 9.7 17.7 0.00 0.00 0.00 52 1015.9
20260901222009 28 38 6.4 17.7 0.00 0.00 0.00 52 1016.0
20260901221508 28 13 6.4 19.3 0.00 0.00 0.00 52 1016.1
20260901221008 28 64 8.0 22.5 0.00 0.00 0.00 51 1016.1
20260901220508 28 98 6.4 22.5 0.00 0.00 0.00 51 1016.0
20260901220012 28 62 6.4 20.9 0.00 0.00 0.00 51 1016.0
20260901215507 28 90 8.0 20.9 0.00 0.00 0.00 51 1016.0
20260901215006 28 59 8.0 19.3 0.00 0.00 0.00 51 1016.0
20260901214507 28 57 8.0 17.7 0.00 0.00 0.00 51 1016.1
20260901214006 28 45 6.4 17.7 0.00 0.00 0.00 51 1016.0
20260901213504 27 76 11.3 16.1 0.00 0.00 0.00 52 1015.9
20260901213003 27 42 6.4 14.5 0.00 0.00 0.00 52 1016.0
20260901212502 27 25 3.2 12.9 0.00 0.00 0.00 53 1016.0
20260901212001 27 74 3.2 9.7 0.00 0.00 0.00 53 1016.0
20260901211600 27 80 4.8 8.0 0.00 0.00 0.00 54 1016.0
20260901211059 27 5 4.8 8.0 0.00 0.00 0.00 54 1016.0
20260901210559 27 13 1.6 6.4 0.00 0.00 0.00 54 1016.0
20260901210058 27 13 3.2 8.0 0.00 0.00 0.00 54 1016.0
20260901205558 27 15 3.2 8.0 0.00 0.00 0.00 53 1016.0
20260901205101 27 35 4.8 9.7 0.00 0.00 0.00 53 1016.1